ONEWEB-0088, 45457

Orbit data source: Space-Track

ONEWEB-0088, 45457 is a payload satellite owned by One Web (UK) in LEO that was launched on Sat, 21 Mar 2020 UTC via a SOYUZ-2-1B launch vehicle from the Tyuratam Missile And Space Complex (TTMTR). Payload-class satellites include a variety of spacecraft equipped with specific instruments for various scientific and technological missions. These include communications satellites like Starlink; space stations such as the ISS; scientific satellites like the Hubble; Earth observation satellites from companies like Planet Labs, Umbra, and HawkEye 360; GPS; miniature CubeSats for education and research; and military/defense satellites.

Loading next visibility...
Identifier
45457, 2020-020AK
Orbit
LEO
Last TLE update
19 hours ago
Origin
Manufacturer
One Web
Mission
Operational Commercial Communications
Bus & Motor
ARROW, Unknown motor
Mass
148 kg wet, ~140 kg dry
Launch date (UTC)
2020-03-21 (5 years ago)
Launch vehicle
SOYUZ-2-1B
Launch site
Tyuratam Missile And Space Complex (TTMTR)
Object type
Payload
Rocket body
Debris
Shape & HBR
Trap Box + 2 Pan, 5 m
Radar Cross Section
2.957 m², Large (>1 m²)

Expand to show TLE details & history

TLE from 19 hours ago
0 ONEWEB-0088
1 45457U 20020AK  25128.45168289  .00000603  00000-0  16642-2 0  9990
2 45457  87.8803 101.6745 0002097  81.2006 278.9359 13.11415864249495
Epoch: 2025-05-08T10:50Z
Definitive object data (Epoch: 2025-05-08T10:50:25.401Z)
Latitude
-0.00007°
Longitude
72.54668°
Altitude
1,220.329 km
Speed
7.244 km/s
True Right ascension
06h 46m 41s
True Declination
0° 00' 00"
Sunlit
Object was in daylight at TLE epoch
Visualization TLE readout
Latitude
-41.38841°
Longitude
-105.75524°
Altitude
1,234.814 km
Speed
7.236 km/s
Apparent Right ascension
22h 12m 49s
Apparent Declination
-56° 58' 51"
Sunlit
Object is in full shadow
Visualization observer readout
Local Sidereal Time
14:25:21
Azimuth
134.94° SE
Elevation
-46.627°
Doppler factor
1
Orbital elements
Apogee altitude
1,216.397 km
Perigee altitude
1,213.213 km
Semi-major axis
7,592.942 km
Eccentricity
0.0002097
Inclination
87.8803°
RAAN
101.6745°
Arg. of periapsis
81.2006°
True anomaly
278.91216°
Mean anomaly
278.9359°
Eccentric anomaly
278.92403°
Mean motion
3.28041 °/min
BSTAR
0.0016642
Orbital period
109.74 mins
Loading maneuver chart data...
Loading SW <> Apogee altitude chart data...
Loading historical data...
Loading historical data...
Loading historical data...
Loading historical data...
Loading historical data...
Loading historical data...
Loading historical data...

ONEWEB-0088 Visibility forecast

Observer location: undefined°, undefined°

Span
Click to sort rows by Start time (UTC) header in descending order
Start Az.
Max El. time (UTC)
Max El. Az.
Max El.
End time (UTC)
End Az.
12 mins2025-05-09 09:25:33.008Z19.852° NNE2025-05-09 09:31:33.008Z85.758° E30.617°2025-05-09 09:37:33.008Z144.654° SSE
12 mins2025-05-09 11:15:33.008Z340.545° N2025-05-09 11:21:33.008Z271.254° WNW32.55°2025-05-09 11:27:33.008Z214.006° SW
11 mins2025-05-09 21:45:33.008Z139.321° SSE2025-05-09 21:50:33.008Z76.418° E33.013°2025-05-09 21:56:33.008Z16.61° NNE
11 mins2025-05-09 23:35:33.008Z224.413° SW2025-05-09 23:40:33.008Z285.181° WNW30.2°2025-05-09 23:46:33.008Z342.796° N
|